Regional Weather Roundup
Issued by NWS Sioux Falls, SD

Home | Current Version | Previous Version | Text Only | Print | Product List | Glossary On
Versions: 1 2 3 4 5 6 7 8 9 10 11 12 13 14 15 16 17 18 19 20 21 22 23 24 25 26 27 28 29 30 31 32 33 34 35 36 37 38 39 40 41 42 43 44 45 46 47 48 49 50
576
ASUS43 KFSD 170410
RWRFSD

WEATHER ROUNDUP FOR SE SOUTH DAKOTA/SW MINNESOTA/NW IOWA
NATIONAL WEATHER SERVICE SIOUX FALLS SD
1000 PM CST MON JAN 16 2017

NOTE: "FAIR" INDICATES FEW OR NO CLOUDS BELOW 12,000 FEET WITH NO
SIGNIFICANT WEATHER AND OR OBSTRUCTIONS TO VISIBILITY.


SDZ038>040-050-052>070-170500-
SOUTHEAST SOUTH DAKOTA

CITY           SKY/WX    TMP DP  RH WIND       PRES   REMARKS
BROOKINGS      CLOUDY    17  14  88 NW5       29.98S WCI  10
CHAMBERLAIN    CLOUDY    15  12  89 W7        30.07S WCI   5
HURON          CLOUDY     5   2  87 NW7       30.05S WCI  -7
MADISON          N/A     14  14 100 NW8         N/A  WCI   3
MITCHELL       CLOUDY    14   9  80 NW8       30.06S WCI   3
SIOUX FALLS    CLOUDY    30  27  88 N5        29.98R WCI  25
WINNER         FAIR      17  13  84 W3        30.06S
YANKTON        CLOUDY    21  16  79 CALM      30.02S
$$

MNZ071-072-080-081-089-090-097-098-170500-
SOUTHWEST MINNESOTA

CITY           SKY/WX    TMP DP  RH WIND       PRES   REMARKS
FAIRMONT       MIX PCPN  31  30  96 N10       29.93F FOG     WCI  22
JACKSON        DRIZZLE   30  30 100 CALM      29.94S
LUVERNE        CLOUDY    28  27  93 VRB7      29.97S FOG     WCI  21
MARSHALL       MIX PCPN  23  22  96 NW7       30.00S VSB 3/4 WCI  15
MONTEVIDEO     FOG       27  25  93 N6        30.03S VSB 3/4 WCI  20
PIPESTONE      FOG       27  27 100 N7        29.96S VSB 3/4 WCI  19
REDWOOD FALLS  CLOUDY    31  28  89 N7        29.98F FOG     WCI  24
TRACY          FOG       26  26  99 NW9       29.99S VSB 1/2 WCI  17
WINDOM         MIX PCPN  30  30 100 N10       29.95S VSB 1   WCI  21
WORTHINGTON    MIX PCPN  30  29  96 N14       29.95S FOG     WCI  19
$$

IAZ001>003-012>014-020>022-031-032-NEZ013-014-SDZ071-170500-
NORTHWEST IOWA

CITY           SKY/WX    TMP DP  RH WIND       PRES   REMARKS
CHEROKEE       CLOUDY    32  32 100 CALM      29.94S
DENISON        CLOUDY    32  32 100 N6        29.91S FOG     WCI  26
ESTHERVILLE    FRZ RAIN  31  31 100 N10       29.92F FOG     WCI  22
LE MARS        CLOUDY    34  32  93 NW9       29.98R WCI  26
ORANGE CITY    CLOUDY    32  32 100 N5        29.95S WCI  27
SHELDON        CLOUDY    32  32 100 N8        29.94R WCI  25
SIOUX CITY     CLOUDY    33  31  92 NW16      29.97S FOG     WCI  23
SPENCER        FRZ RAIN  32  31  96 N8        29.93F WCI  25
STORM LAKE     CLOUDY    32  32 100 N7        29.92S FOG     WCI  26
$$

ABBREVIATIONS USED IN REMARKS
   TC - TEMPERATURE IN CELSIUS
  WCI - WIND CHILL INDEX
   HX - HEAT INDEX
  VSB - VISIBILITY





USA.gov is the U.S. government's official web portal to all federal, state and local government web resources and services.